Location: Apeadero de Los Molinos-Guadarrama
(40.7091°N, 4.0689°W)
Time: 19:17:22
(UTC+00:00)

X-37B - Pass Details

Date: 26 September 2021
Orbit: 385 x 389 km, 45.0° (Epoch: 17 October)

Event Time Altitude Azimuth Distance (km) Brightness Sun altitude
Exits shadow 04:17:32 45° 24° (NNE) 535 1.5 -21.4°
Drops below altitude 10° 04:20:07 10° 63° (ENE) 1,415 4.6 -21.0°
Sets 04:22:14 0° 69° (ENE) 2,271 6.1 -20.6°
